Sparta, IL

12:43 PM CDT on October 17, 2017 (GMT -0500)
Sparta Community-Hunter

Weather History for KSAR - January, 2014

Change the Weather History Date:

Sunday, January 12, 2014

  Actual Average (KBLV) Record (KBLV)
Temperature  
Mean Temperature 40 °F -  
Max Temperature 51 °F 36 °F 68 °F (2005)
Min Temperature 30 °F 18 °F -7 °F (1977)
Degree Days  
Heating Degree Days 24    
Moisture  
Dew Point 32 °F    
Average Humidity 70    
Maximum Humidity 93    
Minimum Humidity 50    
Precipitation  
Precipitation 0.00 in - - ()
Sea Level Pressure  
Sea Level Pressure 29.88 in    
Wind  
Wind Speed 8 mph (South)    
Max Wind Speed 26 mph    
Max Gust Speed 36 mph    
Visibility 10 miles    
Events      
Averages and records for this station are not official NWS values.
T = Trace of Precipitation, MM = Missing Value Source: NWS Daily Summary

Daily Weather History Graph

Daily Weather History Graph

Search for Another Location

Airport or City:

Trip Planner

Search our weather history database for the weather conditions in past years. The results will help you decide how hot, cold, wet, or windy it might be!

Date:

Astronomy

Jan. 12, 2014 Rise Set
Actual Time 7:14 AM CST 4:59 PM CST
Civil Twilight 6:45 AM CST 5:28 PM CST
Nautical Twilight 6:13 AM CST 6:01 PM CST
Astronomical Twilight 5:41 AM CST 6:33 PM CST
Moon 2:27 PM CST (1/12) 4:13 AM CST (1/12)
Length of Visible Light 10h 43m
Length of Day
9h 45m
Waxing Gibbous, 90% of the Moon is Illuminated
Jan 12
Waxing Gibbous
Jan 15
Full
Jan 23
Last Quarter
Jan 30
New
Feb 6
First Quarter

Hourly Weather History & Observations

Time (CST) Temp. Windchill Dew Point Humidity Pressure Visibility Wind Dir Wind Speed Gust Speed Precip Events Conditions
12:15 AM 35.6 °F - 30.2 °F 81% 29.94 in 10.0 mi Calm Calm - N/A   Clear
12:35 AM 33.8 °F - 30.2 °F 87% 29.94 in 10.0 mi Calm Calm - N/A   Clear
12:55 AM 33.8 °F 30.8 °F 30.2 °F 87% 29.94 in 10.0 mi WSW 3.5 mph - N/A   Clear
1:15 AM 33.8 °F 30.8 °F 30.2 °F 87% 29.95 in 10.0 mi West 3.5 mph - N/A   Clear
1:35 AM 33.8 °F - 30.2 °F 87% 29.95 in 10.0 mi Calm Calm - N/A   Clear
1:55 AM 33.8 °F - 30.2 °F 87% 29.96 in 10.0 mi Calm Calm - N/A   Clear
2:15 AM 33.8 °F - 30.2 °F 87% 29.96 in 10.0 mi Calm Calm - N/A   Clear
2:35 AM 32.0 °F - 30.2 °F 93% 29.96 in 10.0 mi Calm Calm - N/A   Clear
2:55 AM 32.0 °F 28.7 °F 30.2 °F 93% 29.97 in 10.0 mi WSW 3.5 mph - N/A   Clear
3:15 AM 32.0 °F - 30.2 °F 93% 29.96 in 10.0 mi Calm Calm - N/A   Clear
3:35 AM 32.0 °F - 30.2 °F 93% 29.96 in 10.0 mi Calm Calm - N/A   Clear
3:55 AM 32.0 °F 28.7 °F 30.2 °F 93% 29.96 in 10.0 mi SW 3.5 mph - N/A   Clear
4:15 AM 33.8 °F - 30.2 °F 87% 29.96 in 10.0 mi Calm Calm - N/A   Clear
4:35 AM 30.2 °F - 28.4 °F 93% 29.96 in 10.0 mi Calm Calm - N/A   Clear
4:55 AM 32.0 °F 28.7 °F 28.4 °F 87% 29.97 in 10.0 mi South 3.5 mph - N/A   Clear
5:15 AM 30.2 °F - 28.4 °F 93% 29.98 in 10.0 mi Calm Calm - N/A   Clear
5:35 AM 30.2 °F - 28.4 °F 93% 29.98 in 10.0 mi Calm Calm - N/A   Clear
5:55 AM 32.0 °F 28.7 °F 30.2 °F 93% 29.98 in 10.0 mi South 3.5 mph - N/A   Clear
6:15 AM 32.0 °F 27.5 °F 30.2 °F 93% 29.97 in 10.0 mi South 4.6 mph - N/A   Clear
6:35 AM 32.0 °F 27.5 °F 30.2 °F 93% 29.98 in 10.0 mi South 4.6 mph - N/A   Clear
6:55 AM 32.0 °F 26.4 °F 30.2 °F 93% 29.98 in 10.0 mi South 5.8 mph - N/A   Clear
7:15 AM 32.0 °F 26.4 °F 30.2 °F 93% 29.99 in 10.0 mi South 5.8 mph - N/A   Clear
7:35 AM 32.0 °F 25.6 °F 30.2 °F 93% 29.99 in 10.0 mi SSE 6.9 mph - N/A   Clear
7:55 AM 32.0 °F 24.8 °F 30.2 °F 93% 29.99 in 10.0 mi South 8.1 mph - N/A   Clear
8:15 AM 33.8 °F 27.7 °F 30.2 °F 87% 29.99 in 10.0 mi South 6.9 mph - N/A   Clear
8:35 AM 35.6 °F 28.0 °F 30.2 °F 81% 29.99 in 10.0 mi South 10.4 mph - N/A   Clear
8:55 AM 35.6 °F 27.5 °F 32.0 °F 87% 30.00 in 10.0 mi South 11.5 mph 17.3 mph N/A   Clear
9:15 AM 37.4 °F 30.8 °F 32.0 °F 81% 29.99 in 10.0 mi SSE 9.2 mph - N/A   Clear
9:35 AM 37.4 °F 29.8 °F 32.0 °F 81% 29.99 in 10.0 mi South 11.5 mph 17.3 mph N/A   Clear
9:55 AM 41.0 °F 34.3 °F 32.0 °F 70% 29.99 in 10.0 mi South 11.5 mph 18.4 mph N/A   Clear
10:15 AM 41.0 °F 34.3 °F 32.0 °F 70% 29.99 in 10.0 mi South 11.5 mph - N/A   Clear
10:35 AM 42.8 °F 35.8 °F 32.0 °F 66% 29.99 in 10.0 mi South 13.8 mph - N/A   Clear
10:55 AM 42.8 °F 34.3 °F 32.0 °F 66% 29.97 in 10.0 mi South 19.6 mph 24.2 mph N/A   Clear
11:15 AM 44.6 °F 37.8 °F 32.0 °F 61% 29.94 in 10.0 mi South 15.0 mph 26.5 mph N/A   Clear
11:35 AM 44.6 °F 37.2 °F 32.0 °F 61% 29.93 in 10.0 mi South 17.3 mph 26.5 mph N/A   Clear
11:55 AM 44.6 °F 36.9 °F 32.0 °F 61% 29.92 in 10.0 mi South 18.4 mph 27.6 mph N/A   Clear
12:15 PM 46.4 °F 39.8 °F 33.8 °F 62% 29.90 in 10.0 mi South 16.1 mph 24.2 mph N/A   Clear
12:35 PM 46.4 °F 39.0 °F 33.8 °F 62% 29.88 in 10.0 mi South 19.6 mph 26.5 mph N/A   Clear
12:55 PM 48.2 °F - 33.8 °F 58% 29.86 in 10.0 mi South 19.6 mph 24.2 mph N/A   Clear
1:15 PM 50.0 °F - 32.0 °F 50% 29.85 in 10.0 mi South 16.1 mph 21.9 mph N/A   Clear
1:35 PM 50.0 °F - 33.8 °F 54% 29.84 in 10.0 mi South 19.6 mph 24.2 mph N/A   Clear
1:55 PM 50.0 °F - 33.8 °F 54% 29.82 in 10.0 mi SSE 18.4 mph 27.6 mph N/A   Clear
2:15 PM 50.0 °F - 33.8 °F 54% 29.82 in 10.0 mi South 18.4 mph 24.2 mph N/A   Clear
2:35 PM 51.8 °F - 33.8 °F 50% 29.81 in 10.0 mi South 16.1 mph 21.9 mph N/A   Clear
2:55 PM 50.0 °F - 33.8 °F 54% 29.80 in 10.0 mi SSE 21.9 mph 29.9 mph N/A   Clear
3:15 PM 50.0 °F - 33.8 °F 54% 29.79 in 10.0 mi South 20.7 mph 32.2 mph N/A   Clear
3:35 PM 50.0 °F - 33.8 °F 54% 29.79 in 10.0 mi South 16.1 mph 28.8 mph N/A   Clear
3:55 PM 50.0 °F - 35.6 °F 58% 29.79 in 10.0 mi South 17.3 mph 27.6 mph N/A   Clear
4:15 PM 50.0 °F - 35.6 °F 58% 29.79 in 10.0 mi South 18.4 mph 29.9 mph N/A   Clear
4:35 PM 50.0 °F - 35.6 °F 58% 29.78 in 10.0 mi South 18.4 mph 28.8 mph N/A   Clear
4:55 PM 50.0 °F - 35.6 °F 58% 29.77 in 10.0 mi South 18.4 mph 34.5 mph N/A   Clear
5:15 PM 50.0 °F - 35.6 °F 58% 29.76 in 10.0 mi South 18.4 mph 29.9 mph N/A   Clear
5:35 PM 50.0 °F - 35.6 °F 58% 29.76 in 10.0 mi South 18.4 mph 31.1 mph N/A   Clear
5:55 PM 50.0 °F - 35.6 °F 58% 29.76 in 10.0 mi South 19.6 mph 32.2 mph N/A   Clear
6:15 PM 50.0 °F - 33.8 °F 54% 29.77 in 10.0 mi South 20.7 mph 29.9 mph N/A   Clear
6:35 PM 50.0 °F - 33.8 °F 54% 29.76 in 10.0 mi South 20.7 mph 33.4 mph N/A   Clear
6:55 PM 50.0 °F - 33.8 °F 54% 29.76 in 10.0 mi South 26.5 mph 35.7 mph N/A   Clear
7:15 PM 50.0 °F - 33.8 °F 54% 29.75 in 10.0 mi South 23.0 mph 33.4 mph N/A   Clear
7:35 PM 50.0 °F - 33.8 °F 54% 29.76 in 10.0 mi South 24.2 mph 34.5 mph N/A   Clear
7:55 PM 50.0 °F - 33.8 °F 54% 29.76 in 10.0 mi South 18.4 mph 27.6 mph N/A   Clear
8:15 PM 48.2 °F - 33.8 °F 58% 29.77 in 10.0 mi South 21.9 mph 28.8 mph N/A   Clear
8:35 PM 50.0 °F - 33.8 °F 54% 29.77 in 10.0 mi South 16.1 mph 26.5 mph N/A   Clear
8:55 PM 48.2 °F - 33.8 °F 58% 29.79 in 10.0 mi SSW 16.1 mph 27.6 mph N/A   Clear
9:15 PM 48.2 °F - 32.0 °F 54% 29.79 in 10.0 mi South 16.1 mph 26.5 mph N/A   Clear
9:35 PM 46.4 °F 39.0 °F 32.0 °F 57% 29.79 in 10.0 mi South 19.6 mph 23.0 mph N/A   Clear
9:55 PM 46.4 °F 39.2 °F 32.0 °F 57% 29.77 in 10.0 mi South 18.4 mph 25.3 mph N/A   Clear
10:15 PM 46.4 °F 38.5 °F 32.0 °F 57% 29.77 in 10.0 mi South 21.9 mph 31.1 mph N/A   Clear
10:35 PM 46.4 °F 39.5 °F 32.0 °F 57% 29.75 in 10.0 mi South 17.3 mph 26.5 mph N/A   Clear
10:55 PM 46.4 °F 39.5 °F 32.0 °F 57% 29.75 in 10.0 mi South 17.3 mph 26.5 mph N/A   Clear
11:15 PM 46.4 °F 39.8 °F 32.0 °F 57% 29.74 in 10.0 mi South 16.1 mph 26.5 mph N/A   Clear
11:35 PM 46.4 °F 39.2 °F 32.0 °F 57% 29.74 in 10.0 mi South 18.4 mph 29.9 mph N/A   Clear
11:55 PM 46.4 °F 39.5 °F 33.8 °F 62% 29.74 in 10.0 mi South 17.3 mph 26.5 mph N/A   Clear